Weather Roundup
Issued by NWS Corpus Christi, TX

Home | Current Version | Previous Version | Text Only | Print | Product List | Glossary On
Versions: 1 2 3 4 5 6 7 8 9 10 11 12 13 14 15 16 17 18 19 20 21 22 23 24 25 26 27 28 29 30 31 32 33 34 35 36 37 38 39 40 41 42 43 44 45 46 47 48 49 50
000
ASUS44 KCRP 110810
HRRCRP

SOUTH TEXAS REGIONAL WEATHER ROUNDUP
NATIONAL WEATHER SERVICE CORPUS CHRISTI TX
200 AM CST SUN DEC 11 2016


TXZ229>244-110900-
...CORPUS CHRISTI AREA OBSERVATIONS...

CITY           SKY/WX    TMP DP  RH WIND       PRES   REMARKS
CORPUS CHRISTI CLOUDY    55  55 100 W5        30.12F
NAS CORPUS CHR MOCLDY    53  53 100 W6        30.12F FOG
ROCKPORT       CLOUDY    65  62  90 S3        30.11F
KINGSVILLE NAS CLOUDY    53  53 100 W5        30.13F FOG
ALICE          FOG       53  53 100 NW3       30.12F VSB 3/4
ORANGE GROVE   FOG       52  52 100 W3        30.13F VSB 3/4
FALFURRIAS     CLOUDY    52  51  95 W3        30.14S VSB 1
$$

...VICTORIA AREA OBSERVATIONS...

CITY           SKY/WX    TMP DP  RH WIND       PRES   REMARKS
VICTORIA       CLOUDY    57  54  89 NE3       30.12F
BEEVILLE       CLOUDY    57  57 100 CALM      30.12F
PLEASANTON     CLOUDY    49  48  99 W5        30.14F FOG
SAN ANTONIO    DRZL/FOG  50  49  96 CALM      30.12F VSB 1/2
$$

...LAREDO AREA OBSERVATIONS...

CITY           SKY/WX    TMP DP  RH WIND       PRES   REMARKS
LAREDO         LGT RAIN  48  47  96 NE3       30.13F
COTULLA        CLOUDY    49  46  90 NE7       30.14F FOG
DEL RIO        CLOUDY    46  46 100 E6        30.10F
MCALLEN        CLOUDY    53  49  86 CALM      30.14F
HEBBRONVILLE   FOG       49  48  99 CALM      30.13F VSB 1/2
$$

...OTHER TEXAS OBSERVATIONS...

CITY           SKY/WX    TMP DP  RH WIND       PRES   REMARKS
BROWNSVILLE    CLOUDY    54  50  86 CALM      30.14F
HOUSTON        CLOUDY    55  47  74 E7        30.16F
COL. STATION   CLOUDY    53  43  68 SE7       30.14F
AUSTIN         DRZL/FOG  52  51  97 S3        30.11F VSB 1
WACO           CLOUDY    50  47  89 S17       30.10F
FORT WORTH     LGT RAIN  49  41  74 S20G30    30.05F
WICHITA FALLS  CLOUDY    52  46  80 S17       29.91F
LUBBOCK        CLOUDY    44  39  82 SW15      29.87F
EL PASO        PTCLDY    46  37  71 S8        30.07F
$$

...MARINE OBSERVATIONS...

STATION/POSITION TIME  SKY/WX   TEMP    WIND        PRES    VSBY  WAVE   SWELL
                                AIR SEA DIR/SP/G                  HT/PER HT/PER
                 (UTC)          (F)     (DEG/KT/KT) (MB)    (MI)  (FT/S) (FT/S)
PORT ARANSAS     0800            59 60  240/  4/  5 1019.5F
BUOY 90 E PORT A 0750            72 76  120/ 21/ 25 1020.4F         7/ 6
BUOY 45 SE BAFFI 0750            73 75  190/ 17/ 21 1018.9F         7/ 7   3/14
BUOY 200 E PT IS 0650            73 76  120/ 17/ 19 1022.4          6/ 8
BUOY 15 E GALVES 0750            66 65  140/ 19/ 23 1021.4F         5/ 6
$$



USA.gov is the U.S. government's official web portal to all federal, state and local government web resources and services.